EW2309 Weather Reports


Display with metric or nautical units.
time (UTC)temp
F
wind
direction
speed
MPH
gust
MPH
rain 1hr
in
rain 24hr
in
rain mn
in
humidity
%
barometer
mb
20260905051502 77 319 0.0 1.0 0.00 0.00 0.00 84 1012.4
20260905050044 77 319 0.0 0.0 0.00 0.00 0.00 83 1012.6
20260905044544 77 319 0.0 0.0 0.00 0.00 0.00 83 1012.6
20260905043045 77 319 0.0 0.0 0.00 0.00 0.00 84 1012.5
20260905041525 77 319 0.0 1.0 0.00 0.00 0.00 84 1012.7
20260905040009 78 319 0.0 0.0 0.00 0.00 0.00 84 1012.9
20260905034510 78 319 0.0 0.0 0.00 0.00 0.00 83 1012.9
20260905033052 78 319 0.0 0.0 0.00 0.00 0.00 83 1013.1
20260905031550 78 319 0.0 0.0 0.00 0.00 0.00 83 1013.3
20260905030033 79 319 0.0 0.0 0.00 0.00 0.00 83 1013.4
20260905024632 79 319 0.0 0.0 0.00 0.00 0.00 82 1013.6
20260905023012 79 319 0.0 0.0 0.00 0.00 0.00 81 1013.6
20260905021513 80 319 0.0 0.0 0.00 0.00 0.00 80 1013.5
20260905020055 80 319 0.0 0.0 0.00 0.00 0.00 80 1013.4
20260905014554 80 319 0.0 0.0 0.00 0.00 0.00 79 1013.3
20260905013036 81 319 0.0 0.0 0.00 0.00 0.00 79 1013.2
20260905011536 81 319 0.0 0.0 0.00 0.00 0.00 78 1013.2
20260905010021 81 319 0.0 0.0 0.00 0.00 0.00 77 1013.0
20260905004519 81 319 0.0 0.0 0.00 0.00 0.00 76 1012.9
20260905003059 82 319 0.0 0.0 0.00 0.00 0.00 75 1012.9
20260905001558 83 319 0.0 0.0 0.00 0.00 0.00 73 1012.9
20260905000041 84 319 0.0 0.0 0.00 0.00 0.00 73 1012.8
20260904234545 84 319 0.0 0.0 0.00 0.00 0.00 72 1012.7
20260904233026 85 319 0.0 1.0 0.00 0.00 0.00 71 1012.7
20260904231522 87 319 0.0 0.0 0.00 0.00 0.00 69 1012.5
20260904230004 88 319 0.0 1.0 0.00 0.00 0.00 66 1012.4
20260904224504 89 319 0.0 2.0 0.00 0.00 0.00 63 1012.4
20260904223046 89 319 0.0 2.0 0.00 0.00 0.00 65 1012.5
20260904221548 89 319 0.0 2.0 0.00 0.00 0.00 64 1012.4
20260904220046 90 84 0.0 2.0 0.00 0.00 0.00 63 1012.2
20260904214535 90 82 0.0 1.0 0.00 0.00 0.00 62 1011.9
20260904213008 91 97 0.0 1.0 0.00 0.00 0.00 60 1012.1
20260904211509 92 97 0.0 2.0 0.00 0.00 0.00 57 1012.4
20260904210050 94 84 0.0 1.0 0.00 0.00 0.00 56 1012.4
20260904204549 96 89 0.0 4.0 0.00 0.00 0.00 53 1012.4
20260904203042 95 234 0.0 2.0 0.00 0.00 0.00 50 1012.7
20260904201525 95 233 0.0 2.0 0.00 0.00 0.00 52 1012.9
20260904200010 96 232 1.0 4.0 0.00 0.00 0.00 48 1013.0
20260904194506 95 234 0.0 2.0 0.00 0.00 0.00 53 1013.1
20260904193047 97 235 1.0 3.0 0.00 0.00 0.00 52 1013.3
20260904191548 96 229 0.0 3.0 0.00 0.00 0.00 50 1013.7
20260904190022 96 242 0.0 4.0 0.00 0.00 0.00 52 1013.9
20260904184525 94 203 0.0 2.0 0.00 0.00 0.00 52 1014.1
20260904183118 94 196 1.0 3.0 0.00 0.00 0.00 58 1014.4
20260904181556 92 29 0.0 3.0 0.00 0.00 0.00 60 1014.4
20260904180041 92 9 0.0 3.0 0.00 0.00 0.00 61 1014.8
20260904174538 92 360 0.0 4.0 0.00 0.00 0.00 63 1014.8
20260904173030 89 177 0.0 2.0 0.00 0.00 0.00 65 1015.1
20260904171516 89 182 0.0 4.0 0.00 0.00 0.00 67 1015.2
20260904170113 89 57 0.0 2.0 0.00 0.00 0.00 67 1015.4
20260904164557 89 54 1.0 2.0 0.00 0.00 0.00 67 1015.6
20260904163053 89 26 2.0 5.0 0.00 0.00 0.00 67 1015.6
20260904161538 88 57 1.0 4.0 0.00 0.00 0.00 69 1015.8
20260904160033 87 209 1.0 3.0 0.00 0.00 0.00 70 1015.8
20260904154531 86 78 1.0 3.0 0.00 0.00 0.00 72 1016.0
20260904153026 85 344 1.0 3.0 0.00 0.00 0.00 73 1015.9
20260904151522 84 284 0.0 2.0 0.00 0.00 0.00 75 1016.0
20260904150030 83 277 0.0 2.0 0.00 0.00 0.00 76 1015.8
20260904144516 82 275 1.0 4.0 0.00 0.00 0.00 74 1015.7
20260904143013 81 223 0.0 2.0 0.00 0.00 0.00 79 1015.5
20260904141551 80 219 0.0 3.0 0.00 0.00 0.00 80 1015.5
20260904140056 79 257 1.0 3.0 0.00 0.00 0.00 83 1015.4
20260904134527 77 260 0.0 0.0 0.00 0.00 0.00 85 1015.5
20260904133028 77 260 0.0 0.0 0.00 0.00 0.00 88 1015.5
20260904131504 76 260 0.0 0.0 0.00 0.00 0.00 89 1015.6
20260904130002 75 260 0.0 0.0 0.00 0.00 0.00 89 1015.6
20260904124543 75 260 0.0 0.0 0.00 0.00 0.00 89 1015.4
20260904123040 74 260 0.0 0.0 0.00 0.00 0.00 89 1015.4
20260904121526 74 260 0.0 0.0 0.00 0.00 0.00 89 1015.2
20260904120026 73 260 0.0 0.0 0.00 0.00 0.00 89 1015.3
20260904114530 73 260 0.0 0.0 0.00 0.00 0.00 89 1015.2
20260904113030 73 260 0.0 0.0 0.00 0.00 0.00 88 1015.2
20260904111522 74 260 0.0 0.0 0.00 0.00 0.00 88 1014.9
20260904110019 74 260 0.0 0.0 0.00 0.00 0.00 88 1014.8
20260904104516 74 260 0.0 0.0 0.00 0.00 0.00 87 1014.6
20260904103015 74 260 0.0 0.0 0.00 0.00 0.00 87 1014.5
20260904101606 74 260 0.0 0.0 0.00 0.00 0.00 87 1014.4
20260904100056 74 260 0.0 0.0 0.00 0.00 0.00 87 1014.3
20260904094543 74 260 0.0 0.0 0.00 0.00 0.00 87 1014.2
20260904093042 74 260 0.0 0.0 0.00 0.00 0.00 87 1014.0
20260904091525 74 260 0.0 0.0 0.00 0.00 0.00 87 1014.0
20260904090019 74 260 0.0 0.0 0.00 0.00 0.00 86 1014.0
20260904084503 74 260 0.0 0.0 0.00 0.00 0.00 86 1014.0
20260904083002 74 260 0.0 0.0 0.00 0.00 0.00 86 1014.1
20260904081548 75 260 0.0 0.0 0.00 0.00 0.00 85 1014.1
20260904080057 75 260 0.0 0.0 0.00 0.00 0.00 85 1013.9
20260904074554 75 260 0.0 0.0 0.00 0.00 0.00 84 1014.0
20260904073100 76 260 0.0 0.0 0.00 0.00 0.00 83 1014.0
20260904071548 76 260 0.0 0.0 0.00 0.00 0.00 82 1013.9
20260904070047 76 260 0.0 0.0 0.00 0.00 0.00 82 1013.9
20260904064551 77 260 0.0 0.0 0.00 0.00 0.00 81 1013.9
20260904063101 77 260 0.0 0.0 0.00 0.00 0.00 81 1014.1
20260904061536 77 260 0.0 0.0 0.00 0.00 0.00 80 1014.3
20260904060042 77 260 0.0 0.0 0.00 0.00 0.00 80 1014.3
20260904054510 78 260 0.0 0.0 0.00 0.00 0.00 79 1014.3
20260904053010 78 260 0.0 0.0 0.00 0.00 0.00 79 1014.3